"Pseudo-MPEC" for C1FVTC5

Created 2026 Aug 26 0:35:04 UT using Find_Orb

Click here for an explanation of pseudo-MPECs

 
 Astrometry: 
     C1FVTC5*1C2026 08 23.26651721 49 46.758-04 36 44.75   ~8OFo 20.52GVNEOCPV00
     C1FVTC5 1C2026 08 23.27260021 49 44.555-04 37 28.81   ~8OFo 20.42GVNEOCPV00
     C1FVTC5 1C2026 08 23.27975821 49 41.988-04 38 20.58   ~8OFo 20.50GVNEOCPV00
     C1FVTC5 1C2026 08 23.28471421 49 40.192-04 38 56.33   ~8OFo 20.49GVNEOCPV00
     C1FVTC5 0C2026 08 23.34462021 49 18.510-04 46 10.90   ~8OFo 20.2 RVNEOCP291
     C1FVTC5 0C2026 08 23.34547021 49 18.180-04 46 17.00   ~8OFo 20.2 RVNEOCP291
     C1FVTC5 0C2026 08 23.34633021 49 17.890-04 46 23.30   ~8OFo 20.3 RVNEOCP291

Station data:
(291) LPL/Spacewatch II  (N31.961669 W111.599905)  US/Arizona.  Observers J.
   V. Scotti, R. S. McMillan. 1.8-m f/2.7 reflector + CCD.
(V00) Kitt Peak-Bok  (N31.963125 W111.600190)  US/Arizona. Measurers T.
   Beuden, V. F. Carvajal, D. Fay, J. B. Fazekas, D. C. Fuls, A. R. Gibbs, A.
   D. Grauer, H. Gröller, J. K. Hogan, R. A. Kowalski, S. M. Larson, G. J.
   Leonard, D. Rankin, R. L. Seaman, F. C. Shelly, K. W. Wierzchoś. 2.25-m
   reflector + 4x4K mosaic CCD.

Orbital elements:  C1FVTC5
   Perihelion 2026 Jun 21.019014 +/- 96.1 TT =  0:27:22.7 (JD 2461212.519014)
Epoch 2026 Aug 23.0 TT = JDT 2461275.5   Earth MOID: 0.1538   Ma: 0.0569
M  35.464428547 +/- 80              (J2000 ecliptic)             AutoNEOCP
n   0.563097381 +/- 0.454           Peri.   32.450136 +/- 70
a   1.452380393 +/- 0.781           Node   150.976609 +/- 2.2
e   0.85081360 +/- 0.213            Incl.   50.176630 +/- 37
P   1.750/639.309d         H 22.11  G  0.15   U 12.2  SR
q 0.216675400 +/- 0.383    Q 2.688085387 +/- 16.1
From 7 observations 2026 Aug. 23 (1.9 hr); mean residual 0".22
Residuals in arcseconds: 
260823 V00  .26-  .34-    260823 V00  .28+  .43+    260823 291  .05+  .08-    
260823 V00  .19-  .13-    260823 291  .10+  .04-    
260823 V00  .26+  .15+    260823 291  .25-  .00     

Ephemerides (geocentric):
Date (UTC) HH   RA             Dec           delta  r     elong  mag " sig PA
---- --------  ------------   ------------  ------ ------ -----  --- --------
2026 08 26 01  21 35 05.720   -09 36 42.10  .35555 1.3617 169.5 21.1 4113 148
2026 08 26 02  21 34 53.904   -09 40 41.50  .35616 1.3623 169.4 21.1 4272 148
2026 08 26 03  21 34 42.126   -09 44 40.04  .35678 1.3628 169.3 21.1 4436 148
2026 08 26 04  21 34 30.386   -09 48 37.73  .35740 1.3633 169.2 21.1 4605 148
2026 08 26 05  21 34 18.685   -09 52 34.57  .35803 1.3639 169.1 21.1 4779 148
2026 08 26 06  21 34 07.021   -09 56 30.57  .35865 1.3644 169.1 21.1 4958 148
2026 08 26 07  21 33 55.396   -10 00 25.73  .35927 1.3650 169.0 21.1 5143 148
2026 08 26 08  21 33 43.809   -10 04 20.04  .35990 1.3655 168.9 21.1 5333 148
2026 08 26 09  21 33 32.259   -10 08 13.53  .36052 1.3660 168.8 21.1 5529 148
2026 08 26 10  21 33 20.747   -10 12 06.17  .36115 1.3666 168.7 21.1 5731 148
2026 08 26 11  21 33 09.273   -10 15 57.99  .36178 1.3671 168.7 21.2 5940 148
2026 08 26 12  21 32 57.836   -10 19 48.99  .36240 1.3676 168.6 21.2 6154 148
2026 08 26 13  21 32 46.436   -10 23 39.15  .36303 1.3682 168.5 21.2 6376 148
2026 08 26 14  21 32 35.073   -10 27 28.50  .36366 1.3687 168.4 21.2 6605 148
2026 08 26 15  21 32 23.748   -10 31 17.03  .36429 1.3692 168.3 21.2 6840 148
2026 08 26 16  21 32 12.459   -10 35 04.74  .36493 1.3698 168.2 21.2 7084 148
2026 08 26 17  21 32 01.207   -10 38 51.64  .36556 1.3703 168.2 21.2 7335 148
2026 08 26 18  21 31 49.992   -10 42 37.73  .36619 1.3709 168.1 21.2 7594 148
2026 08 26 19  21 31 38.813   -10 46 23.01  .36683 1.3714 168.0 21.2 7862 148
2026 08 26 20  21 31 27.671   -10 50 07.49  .36746 1.3719 167.9 21.2 8138 147
2026 08 26 21  21 31 16.564   -10 53 51.17  .36810 1.3725 167.8 21.2 8424 147
2026 08 26 22  21 31 05.495   -10 57 34.05  .36873 1.3730 167.7 21.2 8719 147
2026 08 26 23  21 30 54.461   -11 01 16.13  .36937 1.3735 167.6 21.2 9025 147
2026 08 27 00  21 30 43.463   -11 04 57.42  .37001 1.3741 167.6 21.2 9340 147
2026 08 27 01  21 30 32.500   -11 08 37.92  .37065 1.3746 167.5 21.3 9667 147
2026 08 27 02  21 30 21.574   -11 12 17.64  .37129 1.3751 167.4 21.3 167' 147
2026 08 27 03  21 30 10.683   -11 15 56.57  .37193 1.3757 167.3 21.3 173' 147
2026 08 27 04  21 29 59.828   -11 19 34.71  .37258 1.3762 167.2 21.3 179' 147
2026 08 27 05  21 29 49.007   -11 23 12.08  .37322 1.3767 167.1 21.3 185' 147
2026 08 27 06  21 29 38.223   -11 26 48.68  .37386 1.3773 167.0 21.3 191' 147
2026 08 27 07  21 29 27.473   -11 30 24.50  .37451 1.3778 166.9 21.3 198' 147
2026 08 27 08  21 29 16.758   -11 33 59.55  .37515 1.3783 166.9 21.3 205' 146
2026 08 27 09  21 29 06.078   -11 37 33.83  .37580 1.3789 166.8 21.3 212' 146
2026 08 27 10  21 28 55.433   -11 41 07.35  .37645 1.3794 166.7 21.3 220' 146
2026 08 27 11  21 28 44.822   -11 44 40.11  .37710 1.3799 166.6 21.3 227' 146
2026 08 27 12  21 28 34.246   -11 48 12.10  .37774 1.3805 166.5 21.3 236' 146
2026 08 27 13  21 28 23.704   -11 51 43.35  .37839 1.3810 166.4 21.3 244' 146
2026 08 27 14  21 28 13.197   -11 55 13.83  .37905 1.3815 166.3 21.3 253' 145
2026 08 27 15  21 28 02.724   -11 58 43.57  .37970 1.3820 166.2 21.4 262' 145
2026 08 27 16  21 27 52.285   -12 02 12.56  .38035 1.3826 166.2 21.4 271' 145
2026 08 27 17  21 27 41.880   -12 05 40.81  .38100 1.3831 166.1 21.4 281' 145
2026 08 27 18  21 27 31.509   -12 09 08.31  .38166 1.3836 166.0 21.4 291' 144
2026 08 27 19  21 27 21.171   -12 12 35.07  .38231 1.3842 165.9 21.4 301' 144
2026 08 27 20  21 27 10.867   -12 16 01.10  .38297 1.3847 165.8 21.4 312' 144
2026 08 27 21  21 27 00.597   -12 19 26.39  .38362 1.3852 165.7 21.4 324' 143
2026 08 27 22  21 26 50.360   -12 22 50.95  .38428 1.3858 165.6 21.4 336' 143
2026 08 27 23  21 26 40.156   -12 26 14.78  .38494 1.3863 165.5 21.4 348' 142
2026 08 28 00  21 26 29.986   -12 29 37.89  .38560 1.3868 165.4 21.4 361' 142